FW6802 Weather Reports


Display with metric or nautical units.
time (UTC)temp
F
wind
direction
speed
MPH
gust
MPH
rain 1hr
in
rain 24hr
in
rain mn
in
humidity
%
barometer
mb
20260504110314 54 166 3.0 12.0 0.00 0.00 0.00 72 1005.8
20260504100255 53 176 3.0 12.0 0.00 0.00 0.00 71 1006.5
20260504081133 53 178 2.0 12.0 0.00 0.00 0.00 70 1007.1
20260504080633 53 179 2.0 12.0 0.00 0.00 0.00 70 1007.0
20260504080132 53 174 3.0 12.0 0.00 0.00 0.00 69 1007.1
20260504070115 54 183 4.0 12.0 0.00 0.00 0.00 68 1007.2
20260504045959 56 187 4.0 12.0 0.00 0.00 0.00 64 1008.6
20260504045459 56 181 3.0 12.0 0.00 0.00 0.00 64 1008.5
20260504044959 56 184 3.0 12.0 0.00 0.00 0.00 64 1008.3
20260504044459 56 188 3.0 12.0 0.00 0.00 0.00 64 1008.4
20260504043958 56 186 4.0 12.0 0.00 0.00 0.00 64 1008.7
20260504043458 56 184 4.0 12.0 0.00 0.00 0.00 64 1008.6
20260504041929 56 194 4.0 12.0 0.00 0.00 0.00 63 1008.5
20260504041427 56 191 3.0 12.0 0.00 0.00 0.00 63 1008.5
20260504040411 56 176 4.0 12.0 0.00 0.00 0.00 62 1008.7
20260504035912 57 189 4.0 12.0 0.00 0.00 0.00 62 1008.6
20260504034340 57 185 5.0 14.0 0.00 0.00 0.00 61 1008.8
20260504033840 57 184 5.0 14.0 0.00 0.00 0.00 61 1009.1
20260504033339 57 191 3.0 12.0 0.00 0.00 0.00 61 1008.8
20260504031253 57 183 3.0 12.0 0.00 0.00 0.00 61 1009.3
20260504030239 57 192 5.0 12.0 0.00 0.00 0.00 61 1009.2
20260504025739 57 192 3.0 11.0 0.00 0.00 0.00 61 1009.4
20260504024207 57 186 3.0 11.0 0.00 0.00 0.00 61 1008.8
20260504023152 57 174 3.0 11.0 0.00 0.00 0.00 61 1008.9
20260504022651 57 174 3.0 11.0 0.00 0.00 0.00 61 1009.0
20260504022150 57 174 3.0 11.0 0.00 0.00 0.00 61 1009.0
20260504021650 57 169 3.0 11.0 0.00 0.00 0.00 61 1008.9
20260504020634 57 165 3.0 11.0 0.00 0.00 0.00 61 1009.1
20260504020135 57 173 3.0 11.0 0.00 0.00 0.00 61 1009.0
20260504015635 57 179 4.0 11.0 0.00 0.00 0.00 61 1008.8
20260504015134 57 175 4.0 11.0 0.00 0.00 0.00 61 1008.9
20260504014118 58 182 4.0 11.0 0.00 0.00 0.00 60 1008.9
20260504013618 58 190 3.0 11.0 0.00 0.00 0.00 60 1008.8
20260504013118 58 184 3.0 11.0 0.00 0.00 0.00 60 1009.2
20260504012102 58 184 4.0 11.0 0.00 0.00 0.00 60 1009.1
20260504011603 58 180 3.0 11.0 0.00 0.00 0.00 60 1009.2
20260504005516 58 179 3.0 11.0 0.00 0.00 0.00 58 1009.0
20260504005016 59 188 3.0 11.0 0.00 0.00 0.00 57 1008.9
20260504004001 59 188 3.0 11.0 0.00 0.00 0.00 56 1009.0
20260504003501 59 190 4.0 11.0 0.00 0.00 0.00 55 1009.0
20260504003001 59 190 4.0 11.0 0.00 0.00 0.00 55 1009.0
20260504002501 59 180 3.0 11.0 0.00 0.00 0.00 55 1009.0
20260504001445 59 181 4.0 11.0 0.00 0.00 0.00 54 1009.1
20260504000945 60 200 3.0 11.0 0.00 0.00 0.00 53 1008.9
20260504000443 60 200 4.0 11.0 0.00 0.00 0.00 53 1008.7
20260503235943 60 178 4.0 11.0 0.00 0.00 0.00 52 1009.2
20260503235443 60 177 4.0 11.0 0.00 0.00 0.00 52 1008.8
20260503234942 60 180 3.0 11.0 0.00 0.00 0.00 52 1009.1
20260503234441 60 166 5.0 11.0 0.00 0.00 0.00 51 1009.0
20260503233941 60 196 4.0 11.0 0.00 0.00 0.00 51 1009.3
20260503233441 60 190 3.0 11.0 0.00 0.00 0.00 50 1008.9
20260503232941 60 210 5.0 12.0 0.00 0.00 0.00 50 1009.3
20260503232440 60 211 6.0 14.0 0.00 0.00 0.00 50 1009.2
20260503231940 61 203 6.0 14.0 0.00 0.00 0.00 49 1009.1
20260503230925 61 201 6.0 15.0 0.00 0.00 0.00 49 1009.3
20260503230425 61 214 6.0 12.0 0.00 0.00 0.00 48 1009.4
20260503225925 61 198 6.0 14.0 0.00 0.00 0.00 48 1009.5
20260503225425 62 201 7.0 15.0 0.00 0.00 0.00 47 1009.3
20260503224925 62 190 7.0 15.0 0.00 0.00 0.00 47 1009.2
20260503224424 62 197 6.0 14.0 0.00 0.00 0.00 47 1009.4
20260503223924 62 193 5.0 13.0 0.00 0.00 0.00 47 1009.1
20260503222909 62 196 5.0 15.0 0.00 0.00 0.00 47 1009.4
20260503221853 62 203 7.0 14.0 0.00 0.00 0.00 47 1009.4
20260503221352 62 191 5.0 13.0 0.00 0.00 0.00 46 1009.6
20260503220852 62 213 5.0 13.0 0.00 0.00 0.00 47 1009.8
20260503220352 62 174 7.0 13.0 0.00 0.00 0.00 46 1009.7
20260503215852 62 180 5.0 14.0 0.00 0.00 0.00 45 1009.3
20260503215352 62 175 4.0 14.0 0.00 0.00 0.00 46 1009.3
20260503214851 62 193 6.0 13.0 0.00 0.00 0.00 46 1009.4
20260503214351 62 202 7.0 13.0 0.00 0.00 0.00 46 1009.9
20260503213850 62 202 6.0 14.0 0.00 0.00 0.00 46 1009.5
20260503213350 62 189 7.0 14.0 0.00 0.00 0.00 45 1009.8
20260503212849 62 200 4.0 15.0 0.00 0.00 0.00 45 1009.9
20260503212349 62 205 6.0 15.0 0.00 0.00 0.00 45 1010.0
20260503211849 62 213 8.0 14.0 0.00 0.00 0.00 44 1010.4
20260503210834 62 203 10.0 15.0 0.00 0.00 0.00 43 1010.6
20260503210333 63 197 7.0 14.0 0.00 0.00 0.00 42 1010.4
20260503205832 63 200 6.0 15.0 0.00 0.00 0.00 43 1010.7
20260503205332 63 215 10.0 19.0 0.00 0.00 0.00 42 1011.1
20260503204832 63 221 9.0 19.0 0.00 0.00 0.00 42 1010.9
20260503204331 64 210 9.0 15.0 0.00 0.00 0.00 42 1011.0
20260503203830 63 198 5.0 14.0 0.00 0.00 0.00 43 1010.7
20260503203330 63 220 8.0 16.0 0.00 0.00 0.00 42 1010.9
20260503202830 63 212 7.0 16.0 0.00 0.00 0.00 43 1011.0
20260503202329 62 218 8.0 15.0 0.00 0.00 0.00 43 1011.2
20260503201829 61 198 5.0 14.0 0.00 0.00 0.00 44 1010.9
20260503201329 61 207 8.0 14.0 0.00 0.00 0.00 44 1011.4
20260503200828 61 205 7.0 13.0 0.00 0.00 0.00 44 1011.6
20260503200327 61 215 7.0 13.0 0.00 0.00 0.00 44 1011.7
20260503195826 61 204 4.0 12.0 0.00 0.00 0.00 44 1011.9
20260503195326 61 204 5.0 12.0 0.00 0.00 0.00 44 1012.2
20260503193755 61 223 3.0 13.0 0.00 0.00 0.00 44 1012.8
20260503193255 61 201 6.0 13.0 0.00 0.00 0.00 44 1012.7
20260503192755 61 223 7.0 13.0 0.00 0.00 0.00 43 1012.6
20260503192254 61 217 7.0 13.0 0.00 0.00 0.00 43 1012.6
20260503191754 61 207 7.0 13.0 0.00 0.00 0.00 41 1012.8
20260503191253 61 215 6.0 12.0 0.00 0.00 0.00 41 1012.6
20260503190238 62 214 6.0 12.0 0.00 0.00 0.00 39 1012.5
20260503185737 61 209 5.0 11.0 0.00 0.00 0.00 42 1012.3
20260503184207 60 202 3.0 13.0 0.00 0.00 0.00 42 1013.2
20260503183706 59 191 5.0 13.0 0.00 0.00 0.00 41 1013.1
20260503183205 59 192 5.0 12.0 0.00 0.00 0.00 42 1013.3
20260503182150 60 211 5.0 13.0 0.00 0.00 0.00 41 1013.5
20260503181650 60 205 8.0 15.0 0.00 0.00 0.00 40 1013.3
20260503181150 61 196 6.0 16.0 0.00 0.00 0.00 40 1013.6
20260503180650 61 191 4.0 16.0 0.00 0.00 0.00 40 1013.3
20260503180150 61 187 7.0 19.0 0.00 0.00 0.00 38 1013.7
20260503175650 62 200 9.0 19.0 0.00 0.00 0.00 38 1013.7
20260503175149 62 201 4.0 15.0 0.00 0.00 0.00 39 1013.9
20260503174649 61 213 7.0 18.0 0.00 0.00 0.00 38 1013.8
20260503173634 61 220 6.0 16.0 0.00 0.00 0.00 39 1014.2
20260503173134 61 189 5.0 16.0 0.00 0.00 0.00 39 1014.3
20260503172633 61 193 4.0 14.0 0.00 0.00 0.00 39 1014.4
20260503172133 62 230 7.0 14.0 0.00 0.00 0.00 37 1014.3
20260503171633 62 217 6.0 16.0 0.00 0.00 0.00 38 1014.2
20260503171133 62 222 8.0 16.0 0.00 0.00 0.00 38 1014.4
20260503170633 61 220 5.0 16.0 0.00 0.00 0.00 38 1014.5
20260503170132 61 217 6.0 16.0 0.00 0.00 0.00 38 1014.4
20260503151014 58 221 6.0 14.0 0.00 0.00 0.00 43 1015.9
20260503150514 58 223 7.0 14.0 0.00 0.00 0.00 44 1015.9
20260503131351 48 230 5.0 11.0 0.00 0.00 0.00 65 1016.2
20260503130851 48 220 4.0 11.0 0.00 0.00 0.00 66 1016.1
20260503130350 47 196 3.0 11.0 0.00 0.00 0.00 66 1016.3